TimeEST,TemperatureF,Dew PointF,Humidity,Sea Level PressureIn,VisibilityMPH,Wind Direction,Wind SpeedMPH,Gust SpeedMPH,PrecipitationIn,Events,Conditions,WindDirDegrees,DateUTC
12:14 AM,23.0,15.8,74,30.03,10.0,WSW,3.5,-,N/A,,Clear,250,2013-03-04 05:14:00
12:34 AM,23.0,15.8,74,30.04,10.0,WSW,3.5,-,N/A,,Clear,250,2013-03-04 05:34:00
12:54 AM,23.0,15.8,74,30.04,10.0,Calm,Calm,-,N/A,,Clear,0,2013-03-04 05:54:00
1:14 AM,21.2,15.8,80,30.05,10.0,WSW,4.6,-,N/A,,Clear,250,2013-03-04 06:14:00
1:35 AM,21.2,15.8,80,30.06,10.0,West,5.8,-,N/A,,Clear,270,2013-03-04 06:35:00
1:54 AM,21.2,15.8,80,30.06,10.0,West,3.5,-,N/A,,Clear,280,2013-03-04 06:54:00
2:14 AM,21.2,15.8,80,30.07,10.0,WNW,4.6,-,N/A,,Clear,290,2013-03-04 07:14:00
2:54 AM,21.2,15.8,80,30.06,10.0,NW,3.5,-,N/A,,Clear,310,2013-03-04 07:54:00
3:14 AM,21.2,15.8,80,30.06,10.0,NW,4.6,-,N/A,,Clear,310,2013-03-04 08:14:00
3:34 AM,21.2,14.0,74,30.05,10.0,NW,5.8,-,N/A,,Clear,310,2013-03-04 08:34:00
3:54 AM,19.4,14.0,80,30.05,10.0,NW,5.8,-,N/A,,Clear,310,2013-03-04 08:54:00
4:14 AM,19.4,14.0,80,30.06,10.0,NW,4.6,-,N/A,,Clear,320,2013-03-04 09:14:00
4:34 AM,19.4,14.0,80,30.06,10.0,NW,4.6,-,N/A,,Clear,320,2013-03-04 09:34:00
4:54 AM,19.4,14.0,80,30.07,10.0,NW,3.5,-,N/A,,Clear,310,2013-03-04 09:54:00
5:14 AM,19.4,14.0,80,30.08,10.0,NW,6.9,-,N/A,,Clear,310,2013-03-04 10:14:00
5:34 AM,17.6,12.2,79,30.09,10.0,WNW,4.6,-,N/A,,Clear,300,2013-03-04 10:34:00
5:54 AM,19.4,14.0,80,30.10,10.0,WNW,4.6,-,N/A,,Clear,290,2013-03-04 10:54:00
6:14 AM,17.6,12.2,79,30.10,10.0,NW,4.6,-,N/A,,Clear,310,2013-03-04 11:14:00
6:54 AM,17.6,12.2,79,30.11,10.0,NW,5.8,-,N/A,,Clear,310,2013-03-04 11:54:00
7:14 AM,17.6,12.2,79,30.11,10.0,NW,4.6,-,N/A,,Clear,310,2013-03-04 12:14:00
7:34 AM,17.6,12.2,79,30.11,10.0,Calm,Calm,-,N/A,,Clear,0,2013-03-04 12:34:00
7:54 AM,19.4,14.0,80,30.12,10.0,WNW,5.8,-,N/A,,Clear,300,2013-03-04 12:54:00
8:14 AM,19.4,14.0,80,30.12,10.0,NW,5.8,-,N/A,,Clear,310,2013-03-04 13:14:00
8:34 AM,21.2,15.8,80,30.13,10.0,WNW,4.6,-,N/A,,Clear,300,2013-03-04 13:34:00
8:54 AM,21.2,15.8,80,30.13,10.0,Calm,Calm,-,N/A,,Clear,0,2013-03-04 13:54:00
9:14 AM,23.0,15.8,74,30.12,10.0,Calm,Calm,-,N/A,,Clear,0,2013-03-04 14:14:00
9:35 AM,24.8,17.6,74,30.13,10.0,West,3.5,-,N/A,,Clear,260,2013-03-04 14:35:00
9:54 AM,26.6,17.6,69,30.13,10.0,NNW,3.5,-,N/A,,Clear,340,2013-03-04 14:54:00
10:14 AM,26.6,17.6,69,30.12,10.0,West,4.6,-,N/A,,Clear,270,2013-03-04 15:14:00
10:34 AM,26.6,15.8,64,30.12,10.0,West,4.6,-,N/A,,Clear,280,2013-03-04 15:34:00
10:54 AM,28.4,15.8,59,30.12,10.0,West,3.5,-,N/A,,Clear,280,2013-03-04 15:54:00
11:14 AM,28.4,15.8,59,30.12,10.0,Calm,Calm,-,N/A,,Clear,0,2013-03-04 16:14:00
11:34 AM,28.4,15.8,59,30.12,10.0,WSW,3.5,-,N/A,,Clear,250,2013-03-04 16:34:00
11:54 AM,30.2,15.8,55,30.11,10.0,WSW,4.6,-,N/A,,Clear,250,2013-03-04 16:54:00
12:14 PM,30.2,14.0,51,30.11,10.0,Calm,Calm,-,N/A,,Clear,0,2013-03-04 17:14:00
12:34 PM,30.2,15.8,55,30.11,10.0,Calm,Calm,-,N/A,,Clear,0,2013-03-04 17:34:00
12:54 PM,32.0,17.6,55,30.10,10.0,SSE,3.5,-,N/A,,Clear,160,2013-03-04 17:54:00
1:14 PM,32.0,15.8,51,30.09,10.0,South,6.9,-,N/A,,Clear,170,2013-03-04 18:14:00
1:54 PM,33.8,17.6,52,30.08,10.0,SSE,6.9,-,N/A,,Clear,150,2013-03-04 18:54:00
2:15 PM,32.0,17.6,55,30.08,10.0,SSE,9.2,-,N/A,,Clear,160,2013-03-04 19:15:00
2:34 PM,32.0,19.4,60,30.07,10.0,SSE,9.2,-,N/A,,Clear,150,2013-03-04 19:34:00
2:54 PM,32.0,19.4,60,30.07,10.0,SSE,8.1,-,N/A,,Clear,160,2013-03-04 19:54:00
3:15 PM,32.0,19.4,60,30.07,10.0,South,8.1,-,N/A,,Clear,170,2013-03-04 20:15:00
3:34 PM,32.0,21.2,64,30.07,10.0,South,8.1,-,N/A,,Clear,180,2013-03-04 20:34:00
3:54 PM,32.0,21.2,64,30.07,10.0,South,8.1,-,N/A,,Clear,170,2013-03-04 20:54:00
4:14 PM,33.8,21.2,60,30.07,10.0,South,5.8,-,N/A,,Clear,170,2013-03-04 21:14:00
4:34 PM,33.8,21.2,60,30.07,10.0,SSE,6.9,-,N/A,,Clear,160,2013-03-04 21:34:00
4:54 PM,32.0,19.4,60,30.07,10.0,South,6.9,-,N/A,,Clear,170,2013-03-04 21:54:00
5:14 PM,32.0,19.4,60,30.07,10.0,SSE,5.8,-,N/A,,Clear,160,2013-03-04 22:14:00
5:34 PM,32.0,19.4,60,30.07,10.0,SSE,4.6,-,N/A,,Clear,160,2013-03-04 22:34:00
5:54 PM,30.2,19.4,64,30.07,10.0,SSE,3.5,-,N/A,,Clear,160,2013-03-04 22:54:00
6:14 PM,30.2,19.4,64,30.06,10.0,South,3.5,-,N/A,,Clear,170,2013-03-04 23:14:00
6:34 PM,30.2,19.4,64,30.06,10.0,SSW,4.6,-,N/A,,Clear,200,2013-03-04 23:34:00
6:54 PM,30.2,19.4,64,30.06,10.0,SSW,4.6,-,N/A,,Clear,200,2013-03-04 23:54:00
7:14 PM,30.2,17.6,60,30.07,10.0,SW,3.5,-,N/A,,Clear,220,2013-03-05 00:14:00
7:34 PM,30.2,17.6,60,30.07,10.0,Calm,Calm,-,N/A,,Clear,0,2013-03-05 00:34:00
7:54 PM,30.2,17.6,60,30.07,10.0,Calm,Calm,-,N/A,,Clear,0,2013-03-05 00:54:00
8:14 PM,28.4,17.6,64,30.07,10.0,Calm,Calm,-,N/A,,Clear,0,2013-03-05 01:14:00
8:34 PM,30.2,17.6,60,30.07,10.0,Calm,Calm,-,N/A,,Clear,0,2013-03-05 01:34:00
8:54 PM,26.6,17.6,69,30.07,10.0,Calm,Calm,-,N/A,,Clear,0,2013-03-05 01:54:00
9:35 PM,26.6,21.2,80,30.08,10.0,ENE,3.5,-,N/A,,Clear,70,2013-03-05 02:35:00
9:54 PM,28.4,21.2,74,30.08,10.0,Calm,Calm,-,N/A,,Clear,0,2013-03-05 02:54:00
10:14 PM,26.6,21.2,80,30.08,10.0,Calm,Calm,-,N/A,,Clear,0,2013-03-05 03:14:00
10:34 PM,26.6,21.2,80,30.09,10.0,Calm,Calm,-,N/A,,Clear,0,2013-03-05 03:34:00
10:54 PM,26.6,19.4,74,30.09,10.0,NE,3.5,-,N/A,,Clear,50,2013-03-05 03:54:00
11:14 PM,26.6,19.4,74,30.09,10.0,NE,4.6,-,N/A,,Clear,40,2013-03-05 04:14:00
11:34 PM,26.6,21.2,80,30.10,10.0,NE,4.6,-,N/A,,Clear,50,2013-03-05 04:34:00
11:54 PM,24.8,21.2,86,30.10,10.0,NE,6.9,-,N/A,,Clear,50,2013-03-05 04:54:00